Terminal Aerodrome Forecast
Issued by NWS

Home | Current Version | Previous Version | Text Only | Print | Product List | Glossary On
Versions: 1 2 3 4 5 6 7 8 9 10 11 12 13 14 15 16
000
FTUS43 KGRR 260530
TAFLAN
TAF
KLAN 260530Z 2606/2706 26008KT P6SM VCSH SCT060
     FM261600 26012G24KT P6SM VCSH BKN040
     FM270000 29010KT P6SM BKN040=

USA.gov is the U.S. government's official web portal to all federal, state and local government web resources and services.